Find Starlink 11311

NORAD ID: 61253 Int'l Des: 2024-175 Owner: SPXS Country: US Constellation: starlink operational
LEOCIRCULAR

リアルタイム位置

3D地球を読み込み中...

Starlink 11311について

説明を読み込み中...

次回通過

Passes for default location (London). Set your location on the main map for personalized predictions.

高度履歴

Loading altitude history...

軌道要素

1 61253U 24175L 26125.29047054 .00000912 00000-0 12386-4 0 9999
2 61253 53.1583 137.4324 0001314 89.4131 270.7037 15.69714099 93462
Epoch: May 5, 2026 • Age: 24 hours

現在のステータス

高度 359.6 km
速度 7.70 km/s
衛星直下点 11.16°N, 18.95°W
打ち上げ日 Sep 25, 2024
運用期間 1.6 years
タイプ internet

技術仕様

分類 Payload
質量 960.00 kg
乾燥質量 910.00 kg
総質量 960.00 kg
長さ 0.30 m
直径 4.10 m
スパン 29.00 m
形状 Box + pan
製造者 SPXS
バスタイプ Starlink V2MD
フェーズステータス In Orbit
所有者/国 SPXS/US

Most Searched